QPF
0.06 0.08 0.08 0.07 0.07 0.07 0.06 0.06 0.05 0.05 0.05 0.05 0.04 0.05 0.07 0.07 0.07 0.07 0.06 0.06 0.05 0.04 0.04 0.05 0.05 0.04 0.03 0.03 0.04 0.05 0.05 0.06 0.05 0.04 0.03 0.04 0.04 0.05 0.04 0.03 0.02 0.02 0.02
0.06 0.06 0.09 0.09 0.09 0.08 0.07 0.06 0.05 0.05 0.05 0.06 0.07 0.07 0.07 0.07 0.08 0.07 0.05 0.04 0.04 0.03 0.02 0.02 0.03 0.03 0.03 0.03 0.03 0.04 0.04 0.04 0.05 0.04 0.03 0.03 0.04 0.05 0.05 0.04 0.03 0.02 0.02
0.05 0.06 0.08 0.08 0.10 0.10 0.08 0.06 0.04 0.03 0.03 0.04 0.04 0.05 0.05 0.06 0.06 0.06 0.06 0.04 0.03 0.02 0.01 0.01 0.01 0.02 0.02 0.02 0.02 0.02 0.02 0.02 0.01 0.01 0.02 0.02 0.02 0.02 0.03 0.02 0.02 0.02 0.02
0.04 0.05 0.06 0.06 0.07 0.07 0.06 0.04 0.05 0.05 0.04 0.04 0.03 0.02 0.03 0.03 0.05 0.06 0.07 0.05 0.03 0.02 0.01 0.01 0.01 0.01 0.01 0.01 0.01 0.01 0.02 0.02 0.01 0.01 0.02 0.02 0.03 0.03 0.02 0.02 0.01 0.02 0.02
0.03 0.04 0.05 0.06 0.06 0.04 0.03 0.03 0.04 0.04 0.04 0.03 0.03 0.03 0.02 0.03 0.03 0.04 0.05 0.06 0.05 0.04 0.02 0.02 0.02 0.02 0.01 0.01 0.01 0.01 0.02 0.02 0.02 0.02 0.02 0.02 0.03 0.03 0.01 0.01 0.01 0.01 0.01
0.04 0.04 0.04 0.05 0.05 0.04 0.04 0.03 0.03 0.03 0.03 0.03 0.03 0.03 0.02 0.01 0.02 0.03 0.03 0.03 0.04 0.05 0.05 0.04 0.02 0.02 0.02 0.02 0.02 0.02 0.01 0.01 0.01 0.02 0.02 0.02 0.02 0.02 0.02 0.01 0.01 0.01 0.01
0.04 0.06 0.06 0.07 0.08 0.07 0.07 0.05 0.04 0.04 0.03 0.03 0.03 0.03 0.02 0.01 0.02 0.03 0.04 0.04 0.04 0.05 0.07 0.06 0.05 0.03 0.04 0.04 0.04 0.04 0.02 0.02 0.02 0.03 0.02 0.02 0.03 0.03 0.03 0.03 0.02 0.01 0.01
0.05 0.06 0.07 0.06 0.07 0.07 0.07 0.05 0.05 0.05 0.04 0.03 0.03 0.04 0.03 0.02 0.03 0.05 0.06 0.07 0.07 0.06 0.06 0.06 0.05 0.04 0.03 0.06 0.07 0.07 0.04 0.03 0.05 0.04 0.03 0.03 0.04 0.04 0.05 0.03 0.02 0.03 0.03
0.03 0.03 0.03 0.03 0.04 0.04 0.04 0.06 0.06 0.06 0.06 0.06 0.05 0.05 0.04 0.03 0.04 0.06 0.08 0.07 0.06 0.05 0.05 0.04 0.03 0.02 0.03 0.08 0.11 0.09 0.07 0.09 0.10 0.08 0.06 0.05 0.05 0.05 0.04 0.03 0.02 0.03 0.02
0.02 0.02 0.02 0.02 0.03 0.03 0.03 0.04 0.07 0.06 0.05 0.06 0.06 0.05 0.04 0.03 0.03 0.04 0.07 0.07 0.05 0.03 0.02 0.02 0.02 0.02 0.02 0.05 0.09 0.08 0.07 0.09 0.10 0.09 0.07 0.06 0.04 0.04 0.04 0.03 0.02 0.03 0.03
0.02 0.02 0.02 0.03 0.03 0.03 0.03 0.04 0.04 0.04 0.05 0.05 0.04 0.03 0.03 0.03 0.04 0.04 0.05 0.05 0.04 0.02 0.01 0.01 0.02 0.02 0.02 0.03 0.05 0.05 0.06 0.06 0.07 0.06 0.05 0.04 0.03 0.02 0.02 0.01 0.01 0.03 0.03
0.01 0.02 0.02 0.02 0.02 0.02 0.02 0.03 0.03 0.03 0.04 0.05 0.04 0.04 0.04 0.04 0.04 0.03 0.03 0.03 0.03 0.03 0.02 0.01 0.01 0.02 0.03 0.04 0.03 0.03 0.03 0.04 0.04 0.04 0.03 0.02 0.01 0.01 0.01 0.01 0.01 0.01 0.02
0.01 0.02 0.02 0.02 0.03 0.03 0.03 0.03 0.04 0.05 0.05 0.05 0.06 0.05 0.04 0.04 0.03 0.03 0.02 0.03 0.04 0.04 0.02 0.02 0.03 0.03 0.03 0.03 0.03 0.03 0.04 0.04 0.03 0.02 0.02 0.02 0.02 0.01 0.01 0.01 0.01 0.02 0.02
0.02 0.02 0.03 0.03 0.04 0.05 0.05 0.06 0.06 0.07 0.07 0.06 0.04 0.04 0.03 0.03 0.03 0.03 0.02 0.03 0.04 0.04 0.04 0.04 0.04 0.05 0.04 0.03 0.03 0.03 0.04 0.04 0.04 0.03 0.03 0.02 0.03 0.03 0.02 0.01 0.01 0.01 0.01
0.03 0.03 0.03 0.04 0.05 0.06 0.07 0.07 0.06 0.06 0.07 0.08 0.08 0.08 0.07 0.04 0.03 0.03 0.02 0.01 0.02 0.02 0.03 0.04 0.04 0.04 0.04 0.04 0.04 0.04 0.05 0.05 0.04 0.04 0.03 0.03 0.02 0.02 0.02 0.03 0.02 0.02 0.01
0.05 0.04 0.04 0.04 0.04 0.04 0.04 0.03 0.02 0.02 0.02 0.02 0.03 0.03 0.02 0.01 0.01 0.01 0.01 0.01 0.02 0.03 0.03 0.03 0.03 0.03 0.03 0.03 0.03 0.03 0.03 0.03 0.02 0.03 0.03 0.03 0.03 0.03 0.03 0.03 0.02 0.02 0.02
0.07 0.05 0.04 0.03 0.03 0.03 0.03 0.03 0.02 0.02 0.02 0.03 0.02 0.01 0.01 0.01 0.01 0.01 0.02 0.03 0.04 0.04 0.03 0.03 0.03 0.03 0.03 0.03 0.03 0.03 0.03 0.03 0.03 0.03 0.03 0.02 0.03 0.04 0.04 0.03 0.02 0.02 0.01
0.08 0.06 0.05 0.04 0.03 0.04 0.04 0.03 0.02 0.03 0.02 0.02 0.02 0.02 0.01 0.01 0.01 0.02 0.03 0.05 0.04 0.04 0.06 0.07 0.06 0.05 0.05 0.05 0.05 0.05 0.04 0.04 0.03 0.02 0.02 0.02 0.02 0.03 0.03 0.03 0.02 0.02 0.02
0.06 0.04 0.04 0.04 0.03 0.03 0.04 0.03 0.03 0.03 0.02 0.01 0.01 0.02 0.02 0.02 0.03 0.03 0.03 0.04 0.03 0.03 0.04 0.04 0.03 0.03 0.03 0.03 0.03 0.03 0.03 0.03 0.03 0.02 0.02 0.02 0.03 0.03 0.03 0.04 0.04 0.04 0.04
0.03 0.02 0.02 0.03 0.03 0.03 0.03 0.04 0.04 0.03 0.02 0.02 0.02 0.03 0.04 0.04 0.03 0.03 0.04 0.05 0.04 0.03 0.03 0.03 0.03 0.02 0.02 0.03 0.03 0.02 0.02 0.02 0.02 0.02 0.02 0.02 0.02 0.03 0.03 0.04 0.04 0.04 0.04
0.02 0.02 0.02 0.01 0.02 0.02 0.01 0.02 0.02 0.02 0.02 0.02 0.03 0.04 0.04 0.04 0.04 0.05 0.05 0.06 0.07 0.07 0.07 0.06 0.06 0.05 0.04 0.04 0.03 0.03 0.02 0.01 0.01 0.02 0.01 0.01 0.02 0.02 0.02 0.02 0.03 0.03 0.03
0.02 0.02 0.02 0.02 0.01 0.01 0.02 0.02 0.02 0.02 0.03 0.03 0.04 0.05 0.05 0.04 0.04 0.05 0.05 0.05 0.05 0.06 0.06 0.06 0.05 0.05 0.04 0.03 0.02 0.02 0.02 0.01 0.01 0.01 0.01 0.01 0.02 0.02 0.03 0.03 0.03 0.03 0.03
0.03 0.03 0.03 0.02 0.02 0.02 0.02 0.02 0.02 0.03 0.03 0.04 0.04 0.05 0.05 0.04 0.03 0.03 0.03 0.04 0.04 0.04 0.04 0.03 0.03 0.02 0.01 0.01 0.01 0.01 0.01 0.01 0.02 0.02 0.01 0.01 0.02 0.02 0.02 0.03 0.04 0.04 0.04
0.02 0.03 0.02 0.02 0.02 0.02 0.02 0.02 0.03 0.04 0.04 0.04 0.04 0.03 0.03 0.03 0.03 0.02 0.02 0.02 0.02 0.03 0.03 0.03 0.02 0.01 0.01 0.01 0.01 0.01 0.02 0.02 0.02 0.02 0.02 0.02 0.02 0.02 0.02 0.02 0.03 0.04 0.04
0.02 0.02 0.02 0.02 0.02 0.02 0.03 0.03 0.04 0.04 0.04 0.04 0.03 0.02 0.02 0.02 0.02 0.02 0.02 0.02 0.02 0.03 0.03 0.02 0.02 0.01 0.01 0.01 0.01 0.01 0.02 0.02 0.02 0.02 0.02 0.02 0.02 0.02 0.02 0.02 0.02 0.03 0.04
0.04 0.03 0.03 0.03 0.03 0.04 0.04 0.03 0.03 0.03 0.02 0.02 0.03 0.03 0.02 0.02 0.01 0.02 0.02 0.03 0.03 0.03 0.02 0.02 0.01 0.01 0.01 0.01 0.01 0.01 0.01 0.01 0.02 0.02 0.02 0.02 0.03 0.02 0.02 0.02 0.03 0.03 0.04
MSLP
1011.76 1012.13 1012.49 1012.76 1012.90 1012.90 1012.79 1012.60 1012.40 1012.24 1012.15 1012.17 1012.28 1012.44 1012.61 1012.76 1012.85 1012.87 1012.85 1012.81 1012.80 1012.85 1012.98 1013.21 1013.52 1013.87 1014.21 1014.49 1014.69 1014.77 1014.73 1014.58 1014.36 1014.08 1013.77 1013.47 1013.19 1012.92 1012.68 1012.47 1012.27 1012.11 1012.00
1011.55 1011.91 1012.24 1012.50 1012.64 1012.65 1012.55 1012.39 1012.20 1012.05 1011.97 1011.98 1012.06 1012.19 1012.33 1012.45 1012.51 1012.52 1012.50 1012.46 1012.46 1012.52 1012.67 1012.91 1013.23 1013.60 1013.95 1014.26 1014.48 1014.59 1014.57 1014.45 1014.24 1013.96 1013.66 1013.33 1013.01 1012.69 1012.40 1012.11 1011.85 1011.61 1011.43
1011.42 1011.76 1012.08 1012.33 1012.47 1012.49 1012.41 1012.27 1012.12 1011.99 1011.92 1011.92 1011.98 1012.09 1012.20 1012.29 1012.33 1012.33 1012.31 1012.28 1012.30 1012.38 1012.55 1012.81 1013.14 1013.50 1013.86 1014.16 1014.38 1014.48 1014.46 1014.34 1014.12 1013.84 1013.51 1013.17 1012.82 1012.47 1012.13 1011.80 1011.48 1011.19 1010.94
1011.32 1011.66 1011.97 1012.21 1012.35 1012.38 1012.33 1012.22 1012.10 1012.00 1011.96 1011.97 1012.03 1012.12 1012.21 1012.28 1012.32 1012.32 1012.30 1012.30 1012.34 1012.44 1012.63 1012.90 1013.23 1013.57 1013.91 1014.18 1014.36 1014.42 1014.37 1014.21 1013.97 1013.66 1013.32 1012.95 1012.59 1012.22 1011.86 1011.50 1011.16 1010.82 1010.52
1011.22 1011.55 1011.85 1012.08 1012.23 1012.28 1012.25 1012.19 1012.11 1012.06 1012.05 1012.09 1012.16 1012.26 1012.35 1012.42 1012.46 1012.47 1012.47 1012.49 1012.56 1012.68 1012.88 1013.15 1013.45 1013.76 1014.05 1014.26 1014.37 1014.37 1014.26 1014.05 1013.76 1013.42 1013.06 1012.68 1012.31 1011.94 1011.58 1011.22 1010.86 1010.51 1010.17
1011.07 1011.40 1011.70 1011.92 1012.07 1012.14 1012.15 1012.13 1012.10 1012.11 1012.15 1012.23 1012.34 1012.46 1012.57 1012.65 1012.71 1012.74 1012.77 1012.81 1012.90 1013.04 1013.24 1013.49 1013.76 1014.01 1014.23 1014.35 1014.38 1014.30 1014.11 1013.84 1013.50 1013.13 1012.74 1012.36 1012.00 1011.64 1011.30 1010.95 1010.60 1010.24 1009.88
1010.85 1011.20 1011.49 1011.71 1011.86 1011.95 1011.99 1012.02 1012.06 1012.13 1012.23 1012.36 1012.52 1012.67 1012.81 1012.92 1013.01 1013.07 1013.12 1013.19 1013.30 1013.45 1013.64 1013.85 1014.07 1014.26 1014.39 1014.43 1014.37 1014.19 1013.93 1013.59 1013.20 1012.80 1012.40 1012.03 1011.68 1011.35 1011.03 1010.71 1010.38 1010.03 1009.67
1010.59 1010.94 1011.24 1011.46 1011.62 1011.73 1011.82 1011.89 1011.99 1012.12 1012.28 1012.47 1012.67 1012.87 1013.04 1013.19 1013.30 1013.39 1013.47 1013.56 1013.68 1013.83 1014.00 1014.19 1014.35 1014.47 1014.52 1014.47 1014.32 1014.07 1013.73 1013.34 1012.92 1012.50 1012.10 1011.74 1011.42 1011.12 1010.83 1010.54 1010.23 1009.90 1009.54
1010.30 1010.68 1010.99 1011.23 1011.40 1011.54 1011.66 1011.78 1011.93 1012.11 1012.33 1012.56 1012.80 1013.03 1013.24 1013.41 1013.54 1013.66 1013.76 1013.87 1014.00 1014.14 1014.30 1014.45 1014.56 1014.63 1014.61 1014.49 1014.27 1013.96 1013.58 1013.15 1012.72 1012.30 1011.91 1011.57 1011.27 1011.00 1010.74 1010.47 1010.18 1009.87 1009.52
1010.05 1010.46 1010.79 1011.05 1011.25 1011.42 1011.58 1011.74 1011.93 1012.15 1012.40 1012.66 1012.92 1013.17 1013.38 1013.56 1013.71 1013.84 1013.96 1014.08 1014.21 1014.35 1014.49 1014.62 1014.71 1014.73 1014.67 1014.50 1014.25 1013.91 1013.51 1013.08 1012.65 1012.24 1011.87 1011.55 1011.27 1011.02 1010.78 1010.53 1010.25 1009.94 1009.59
1009.85 1010.30 1010.67 1010.96 1011.20 1011.40 1011.59 1011.79 1012.01 1012.25 1012.51 1012.77 1013.03 1013.27 1013.48 1013.65 1013.80 1013.93 1014.05 1014.18 1014.32 1014.46 1014.60 1014.72 1014.79 1014.80 1014.72 1014.55 1014.29 1013.95 1013.56 1013.15 1012.74 1012.36 1012.01 1011.71 1011.45 1011.20 1010.97 1010.72 1010.44 1010.12 1009.77
1009.72 1010.21 1010.62 1010.95 1011.23 1011.46 1011.69 1011.91 1012.14 1012.38 1012.64 1012.89 1013.12 1013.33 1013.51 1013.67 1013.80 1013.92 1014.04 1014.18 1014.32 1014.48 1014.63 1014.75 1014.84 1014.85 1014.79 1014.64 1014.40 1014.10 1013.75 1013.37 1013.00 1012.65 1012.33 1012.04 1011.78 1011.54 1011.29 1011.03 1010.74 1010.41 1010.05
1009.62 1010.14 1010.59 1010.96 1011.27 1011.55 1011.80 1012.04 1012.27 1012.51 1012.74 1012.96 1013.15 1013.32 1013.47 1013.59 1013.70 1013.82 1013.94 1014.08 1014.24 1014.41 1014.59 1014.74 1014.85 1014.90 1014.88 1014.77 1014.59 1014.34 1014.04 1013.72 1013.39 1013.07 1012.78 1012.51 1012.25 1011.99 1011.73 1011.44 1011.13 1010.78 1010.40
1009.49 1010.02 1010.49 1010.89 1011.24 1011.54 1011.82 1012.07 1012.31 1012.53 1012.73 1012.92 1013.07 1013.20 1013.31 1013.41 1013.50 1013.61 1013.74 1013.89 1014.08 1014.28 1014.48 1014.67 1014.83 1014.93 1014.96 1014.92 1014.80 1014.62 1014.39 1014.13 1013.86 1013.58 1013.31 1013.05 1012.78 1012.51 1012.22 1011.91 1011.58 1011.21 1010.83
1009.23 1009.75 1010.22 1010.63 1011.00 1011.33 1011.62 1011.89 1012.13 1012.34 1012.53 1012.69 1012.81 1012.92 1013.00 1013.09 1013.18 1013.29 1013.43 1013.61 1013.82 1014.06 1014.31 1014.54 1014.75 1014.91 1015.01 1015.04 1015.00 1014.89 1014.74 1014.55 1014.33 1014.09 1013.85 1013.59 1013.33 1013.04 1012.74 1012.41 1012.05 1011.68 1011.30
1008.77 1009.24 1009.68 1010.08 1010.46 1010.80 1011.11 1011.39 1011.64 1011.86 1012.04 1012.20 1012.32 1012.42 1012.51 1012.60 1012.71 1012.84 1013.01 1013.22 1013.47 1013.75 1014.03 1014.32 1014.58 1014.80 1014.96 1015.07 1015.11 1015.09 1015.01 1014.89 1014.73 1014.54 1014.32 1014.08 1013.82 1013.53 1013.22 1012.88 1012.52 1012.15 1011.78
1008.05 1008.45 1008.83 1009.21 1009.57 1009.91 1010.24 1010.54 1010.81 1011.05 1011.25 1011.43 1011.58 1011.71 1011.83 1011.95 1012.10 1012.27 1012.48 1012.72 1013.01 1013.32 1013.65 1013.98 1014.28 1014.56 1014.79 1014.97 1015.09 1015.15 1015.15 1015.11 1015.01 1014.87 1014.69 1014.48 1014.22 1013.94 1013.63 1013.30 1012.95 1012.60 1012.25
1007.08 1007.38 1007.69 1008.02 1008.36 1008.70 1009.04 1009.36 1009.66 1009.94 1010.19 1010.42 1010.62 1010.80 1010.98 1011.16 1011.36 1011.58 1011.83 1012.12 1012.43 1012.78 1013.13 1013.50 1013.85 1014.17 1014.47 1014.71 1014.91 1015.05 1015.14 1015.17 1015.14 1015.06 1014.93 1014.74 1014.51 1014.25 1013.95 1013.63 1013.30 1012.98 1012.66
1005.90 1006.09 1006.33 1006.61 1006.92 1007.25 1007.60 1007.95 1008.30 1008.63 1008.95 1009.24 1009.51 1009.77 1010.02 1010.27 1010.53 1010.80 1011.10 1011.42 1011.76 1012.12 1012.50 1012.88 1013.26 1013.63 1013.98 1014.29 1014.56 1014.79 1014.96 1015.07 1015.12 1015.11 1015.03 1014.89 1014.69 1014.45 1014.17 1013.87 1013.57 1013.27 1012.99
1004.60 1004.69 1004.86 1005.09 1005.38 1005.71 1006.07 1006.46 1006.85 1007.25 1007.63 1008.01 1008.36 1008.71 1009.03 1009.35 1009.67 1009.99 1010.32 1010.66 1011.02 1011.38 1011.77 1012.16 1012.56 1012.95 1013.34 1013.72 1014.06 1014.37 1014.63 1014.83 1014.97 1015.02 1015.01 1014.91 1014.75 1014.54 1014.29 1014.02 1013.74 1013.47 1013.22
1003.26 1003.29 1003.41 1003.60 1003.88 1004.21 1004.60 1005.02 1005.47 1005.93 1006.39 1006.84 1007.27 1007.69 1008.09 1008.48 1008.84 1009.20 1009.55 1009.89 1010.24 1010.60 1010.97 1011.36 1011.76 1012.18 1012.61 1013.03 1013.45 1013.84 1014.19 1014.48 1014.69 1014.83 1014.88 1014.84 1014.72 1014.55 1014.32 1014.07 1013.82 1013.57 1013.35
1002.01 1002.01 1002.10 1002.28 1002.56 1002.91 1003.32 1003.78 1004.27 1004.78 1005.30 1005.82 1006.32 1006.80 1007.26 1007.69 1008.09 1008.46 1008.81 1009.15 1009.47 1009.81 1010.16 1010.53 1010.92 1011.35 1011.81 1012.28 1012.76 1013.22 1013.65 1014.03 1014.33 1014.55 1014.67 1014.69 1014.62 1014.47 1014.28 1014.05 1013.81 1013.58 1013.38
1000.92 1000.92 1001.02 1001.21 1001.50 1001.87 1002.31 1002.79 1003.32 1003.87 1004.43 1005.00 1005.54 1006.07 1006.56 1007.01 1007.42 1007.79 1008.13 1008.44 1008.74 1009.04 1009.36 1009.70 1010.08 1010.51 1010.98 1011.49 1012.02 1012.55 1013.06 1013.52 1013.90 1014.19 1014.38 1014.46 1014.44 1014.34 1014.17 1013.96 1013.74 1013.53 1013.34
1000.04 1000.07 1000.20 1000.42 1000.73 1001.12 1001.57 1002.08 1002.62 1003.19 1003.77 1004.35 1004.92 1005.46 1005.96 1006.42 1006.82 1007.18 1007.50 1007.78 1008.04 1008.30 1008.58 1008.89 1009.26 1009.68 1010.16 1010.69 1011.26 1011.84 1012.41 1012.93 1013.39 1013.76 1014.01 1014.15 1014.19 1014.13 1013.99 1013.81 1013.61 1013.42 1013.25
999.39 999.47 999.64 999.89 1000.23 1000.63 1001.08 1001.58 1002.12 1002.68 1003.25 1003.83 1004.39 1004.92 1005.41 1005.86 1006.25 1006.59 1006.88 1007.13 1007.35 1007.58 1007.82 1008.10 1008.44 1008.84 1009.32 1009.86 1010.45 1011.07 1011.69 1012.27 1012.79 1013.22 1013.54 1013.75 1013.84 1013.83 1013.75 1013.60 1013.44 1013.27 1013.11
998.96 999.09 999.30 999.58 999.92 1000.32 1000.75 1001.23 1001.73 1002.26 1002.80 1003.34 1003.86 1004.37 1004.84 1005.26 1005.63 1005.95 1006.21 1006.44 1006.64 1006.84 1007.05 1007.30 1007.61 1008.00 1008.46 1009.00 1009.60 1010.23 1010.88 1011.50 1012.07 1012.56 1012.95 1013.22 1013.38 1013.43 1013.40 1013.31 1013.19 1013.05 1012.93
Thickness
5772 5769 5765 5761 5757 5753 5749 5745 5741 5738 5735 5731 5728 5725 5722 5719 5716 5713 5710 5708 5706 5703 5702 5700 5698 5698 5697 5696 5695 5693 5691 5690 5688 5690 5691 5692 5692 5692 5693 5694 5694 5695 5695
5768 5764 5760 5756 5752 5748 5744 5740 5736 5733 5730 5726 5723 5720 5718 5715 5712 5708 5705 5703 5700 5697 5695 5693 5691 5691 5690 5689 5687 5686 5684 5683 5682 5681 5683 5683 5684 5685 5686 5686 5687 5687 5687
5763 5758 5754 5750 5747 5743 5739 5735 5732 5728 5725 5721 5719 5715 5712 5710 5707 5703 5701 5698 5694 5691 5689 5687 5685 5684 5682 5681 5680 5678 5677 5677 5675 5674 5674 5674 5675 5676 5676 5677 5678 5678 5679
5759 5754 5749 5745 5741 5738 5734 5730 5727 5724 5719 5716 5713 5710 5707 5704 5701 5698 5695 5692 5689 5686 5684 5682 5680 5678 5676 5674 5673 5671 5670 5668 5666 5665 5665 5665 5665 5666 5667 5667 5668 5669 5670
5753 5748 5744 5741 5737 5733 5729 5725 5722 5719 5715 5712 5708 5705 5702 5699 5697 5693 5689 5686 5683 5680 5678 5676 5674 5673 5671 5669 5667 5665 5663 5661 5659 5657 5656 5656 5656 5657 5658 5658 5659 5660 5661
5748 5744 5740 5736 5731 5727 5723 5719 5716 5713 5709 5706 5703 5700 5697 5695 5693 5689 5685 5680 5677 5673 5671 5669 5667 5665 5664 5662 5661 5660 5658 5655 5652 5650 5649 5648 5648 5649 5649 5650 5649 5650 5652
5742 5738 5734 5730 5726 5722 5718 5714 5710 5707 5704 5700 5697 5694 5691 5689 5687 5683 5679 5675 5671 5667 5664 5662 5660 5659 5656 5654 5653 5652 5650 5649 5648 5645 5643 5642 5642 5643 5642 5641 5641 5641 5643
5735 5731 5729 5725 5720 5715 5711 5707 5704 5701 5698 5694 5691 5688 5685 5683 5681 5677 5673 5669 5665 5661 5658 5655 5653 5651 5650 5647 5645 5643 5641 5640 5639 5638 5637 5637 5637 5636 5635 5634 5633 5633 5634
5727 5724 5722 5717 5713 5708 5704 5700 5698 5695 5691 5688 5685 5682 5679 5677 5675 5672 5667 5662 5658 5655 5653 5650 5648 5645 5644 5641 5638 5635 5634 5633 5633 5631 5631 5630 5629 5628 5627 5626 5625 5625 5626
5720 5717 5714 5710 5706 5702 5698 5695 5691 5688 5685 5682 5678 5676 5674 5671 5668 5665 5661 5657 5652 5649 5647 5645 5642 5640 5638 5635 5631 5629 5627 5626 5625 5624 5623 5622 5622 5621 5619 5618 5618 5617 5617
5712 5709 5706 5702 5699 5695 5691 5688 5684 5681 5677 5674 5671 5669 5667 5665 5662 5659 5655 5651 5647 5644 5641 5639 5637 5634 5631 5628 5626 5624 5622 5621 5619 5617 5616 5614 5614 5613 5612 5611 5611 5610 5610
5703 5700 5697 5694 5691 5689 5683 5680 5676 5672 5669 5666 5663 5661 5660 5658 5655 5652 5649 5646 5643 5638 5636 5633 5630 5628 5625 5622 5620 5619 5617 5614 5612 5610 5609 5608 5606 5606 5605 5604 5604 5603 5603
5693 5691 5688 5685 5682 5679 5675 5672 5668 5665 5662 5659 5656 5654 5652 5650 5648 5645 5642 5639 5636 5633 5630 5627 5625 5622 5619 5617 5615 5613 5611 5608 5606 5605 5603 5601 5600 5599 5598 5597 5597 5596 5596
5683 5681 5679 5677 5674 5671 5667 5665 5662 5659 5656 5653 5650 5647 5645 5643 5641 5639 5636 5632 5629 5626 5623 5621 5618 5616 5613 5611 5609 5607 5604 5602 5601 5599 5598 5596 5594 5592 5591 5591 5590 5590 5589
5674 5672 5670 5668 5665 5662 5660 5657 5656 5654 5651 5648 5645 5643 5639 5637 5637 5634 5630 5627 5624 5620 5616 5614 5611 5609 5606 5604 5602 5600 5598 5597 5595 5594 5592 5590 5589 5587 5585 5584 5583 5582 5582
5665 5663 5661 5657 5655 5653 5651 5649 5647 5646 5644 5642 5640 5637 5636 5634 5631 5628 5625 5622 5618 5614 5610 5607 5605 5603 5600 5598 5596 5595 5593 5592 5590 5588 5586 5584 5583 5582 5580 5579 5577 5576 5576
5657 5655 5652 5649 5647 5644 5642 5640 5638 5637 5636 5634 5633 5631 5629 5627 5624 5622 5619 5615 5612 5608 5605 5603 5600 5599 5597 5594 5592 5590 5589 5587 5585 5583 5581 5580 5578 5577 5575 5574 5572 5571 5570
5650 5647 5644 5641 5639 5637 5634 5633 5631 5629 5627 5626 5625 5623 5622 5620 5617 5615 5612 5608 5606 5603 5601 5599 5597 5595 5593 5590 5588 5586 5585 5583 5580 5578 5576 5574 5572 5571 5570 5568 5567 5566 5565
5641 5639 5636 5633 5631 5629 5627 5626 5624 5622 5620 5619 5617 5616 5614 5612 5610 5607 5605 5604 5603 5600 5598 5595 5593 5591 5589 5586 5584 5582 5580 5577 5575 5572 5570 5568 5567 5565 5563 5562 5561 5559 5558
5632 5630 5628 5626 5623 5621 5619 5618 5616 5614 5613 5611 5610 5610 5607 5604 5602 5601 5599 5598 5597 5596 5594 5591 5589 5586 5584 5582 5580 5577 5574 5572 5569 5566 5565 5563 5561 5559 5558 5556 5555 5554 5554
5624 5621 5619 5617 5615 5614 5612 5611 5609 5607 5606 5604 5604 5603 5600 5598 5598 5596 5594 5593 5592 5591 5589 5587 5584 5582 5580 5577 5575 5572 5570 5568 5565 5562 5560 5558 5556 5555 5553 5552 5551 5550 5550
5615 5613 5611 5609 5608 5606 5605 5604 5602 5600 5599 5598 5597 5596 5593 5592 5592 5591 5590 5589 5587 5586 5585 5582 5580 5578 5576 5574 5571 5569 5566 5564 5561 5559 5556 5554 5552 5550 5549 5548 5547 5547 5546
5607 5605 5604 5603 5601 5598 5597 5596 5595 5593 5592 5592 5591 5589 5587 5586 5586 5585 5584 5583 5582 5581 5580 5578 5576 5574 5571 5569 5567 5565 5563 5560 5558 5555 5552 5550 5548 5546 5545 5544 5544 5543 5543
5600 5599 5597 5596 5594 5592 5590 5589 5588 5587 5585 5584 5584 5583 5582 5581 5580 5580 5579 5579 5578 5576 5574 5573 5571 5569 5567 5564 5562 5560 5557 5555 5552 5550 5548 5546 5544 5543 5541 5540 5540 5540 5540
5593 5592 5590 5589 5587 5585 5584 5583 5582 5581 5580 5579 5579 5578 5577 5576 5575 5575 5574 5573 5572 5571 5570 5568 5566 5564 5562 5560 5558 5555 5552 5550 5547 5545 5543 5541 5540 5539 5538 5537 5536 5536 5536
5586 5585 5584 5582 5580 5579 5578 5577 5576 5575 5574 5574 5573 5572 5571 5571 5571 5570 5569 5568 5567 5566 5564 5563 5562 5560 5558 5556 5554 5551 5547 5545 5542 5540 5538 5537 5535 5535 5534 5533 5533 5533 5532